Date String (YYYY-MM-DD hh:mm:ss) UTC,Instrument flags,absolute air pressure of the measurement (hPa),sample flow rate (lpm),inlet stack bypass flow (lpm),air temperature of the measurement (°C),ambient temperature measured by the external sensor (°C),aerosol sample conditioner tube jacket temperature (°C),OPC LED temperature (°C),internal box temperature (°C),relative humidity of the measurement (%),span deviation,mass concentration of particles derived from Lorenz-Mie calculation of OPC scattering (μg/m³),mass concentration of particles derived from Lorenz-Mie calculation of OPC scattering (μg/m³),mass concentration of particles derived from Lorenz-Mie calculation of OPC scattering (μg/m³)
DateTimeUTC,F1_M11,P_M11,Q1_M11,Q2_M11,T1_M11,T2_M11,T3_M11,T4_M11,T5_M11,U1_M11,ZSPAN_M11,X0_M11,X2_M11,X1_M11
2024-02-22 12:00:00,SystemResetWarning,0828.4,5.02,000.00,020.4,019.9,000.0,028.9,022.3,23.2,0000.0,0006.90,0002.18,0001.51
2024-02-22 12:01:00,SystemResetWarning,0828.5,5.00,000.00,020.4,019.8,000.0,028.9,022.3,23.2,0000.0,0006.66,0002.16,0001.51
2024-02-22 12:02:00,SystemResetWarning,0828.5,4.99,000.00,020.4,019.8,000.0,028.9,022.3,23.3,0000.0,0007.26,0002.19,0001.52
2024-02-22 12:03:00,SystemResetWarning,0828.5,5.00,000.00,020.4,019.8,000.0,028.9,022.2,23.3,0000.0,0007.76,0002.20,0001.54
2024-02-22 12:04:00,SystemResetWarning,0828.6,4.99,000.00,020.4,019.8,000.0,028.9,022.2,23.3,0000.0,0007.54,0002.21,0001.53
2024-02-22 12:05:00,SystemResetWarning,0828.6,5.00,000.00,020.4,019.8,000.0,028.9,022.2,23.3,0000.0,0007.17,0002.21,0001.54
2024-02-22 12:06:00,SystemResetWarning,0828.6,5.00,000.00,020.4,019.8,000.0,028.9,022.2,23.3,0000.0,0007.79,0002.18,0001.54
2024-02-22 12:07:00,SystemResetWarning,0828.6,5.01,000.00,020.4,019.8,000.0,028.9,022.2,23.3,0000.0,0007.87,0002.24,0001.55
2024-02-22 12:08:00,SystemResetWarning,0828.6,5.01,000.00,020.4,019.8,000.0,028.9,022.2,23.3,0000.0,0007.81,0002.23,0001.56
2024-02-22 12:09:00,SystemResetWarning,0828.6,5.01,000.00,020.4,019.8,000.0,028.9,022.2,23.3,0000.0,0008.14,0002.23,0001.56
2024-02-22 12:10:00,SystemResetWarning,0828.6,5.00,000.00,020.4,019.8,000.0,028.9,022.2,23.3,0000.0,0008.63,0002.30,0001.56
2024-02-22 12:11:00,SystemResetWarning,0828.6,5.00,000.00,020.4,019.8,000.0,028.9,022.2,23.3,0000.0,0008.51,0002.30,0001.56
2024-02-22 12:12:00,SystemResetWarning,0828.6,5.00,000.00,020.4,019.8,000.0,028.9,022.2,23.3,0000.0,0008.66,0002.37,0001.56
2024-02-22 12:13:00,SystemResetWarning,0828.6,5.00,000.00,020.4,019.8,000.0,028.9,022.2,23.3,0000.0,0009.12,0002.40,0001.54
2024-02-22 12:14:00,SystemResetWarning,0828.6,5.00,000.00,020.4,019.8,000.0,028.9,022.2,23.4,0000.0,0008.84,0002.39,0001.53
2024-02-22 12:15:00,SystemResetWarning,0828.6,5.00,000.00,020.4,019.8,000.0,028.9,022.2,23.4,0000.0,0008.88,0002.42,0001.53
2024-02-22 12:16:00,SystemResetWarning,0828.6,5.00,000.00,020.4,019.8,000.0,028.9,022.2,23.4,0000.0,0009.01,0002.45,0001.54
2024-02-22 12:17:00,SystemResetWarning,0828.6,5.00,000.00,020.3,019.8,000.0,028.8,022.2,23.4,0000.0,0008.27,0002.51,0001.54
2024-02-22 12:18:00,SystemResetWarning,0828.6,4.99,000.00,020.3,019.8,000.0,028.8,022.2,23.4,0000.0,0008.25,0002.54,0001.55
2024-02-22 12:19:00,SystemResetWarning,0828.6,5.00,000.00,020.3,019.8,000.0,028.8,022.2,23.4,0000.0,0008.21,0002.53,0001.54
2024-02-22 12:20:00,SystemResetWarning,0828.7,5.01,000.00,020.3,019.8,000.0,028.8,022.2,23.4,0000.0,0008.02,0002.50,0001.54
2024-02-22 12:21:00,SystemResetWarning,0828.8,5.00,000.00,020.3,019.8,000.0,028.8,022.2,23.5,0000.0,0007.74,0002.42,0001.55
2024-02-22 12:22:00,SystemResetWarning,0828.8,5.01,000.00,020.3,019.8,000.0,028.8,022.2,23.5,0000.0,0007.68,0002.40,0001.57
2024-02-22 12:23:00,SystemResetWarning,0828.8,4.99,000.00,020.3,019.8,000.0,028.8,022.2,23.5,0000.0,0007.61,0002.34,0001.59
2024-02-22 12:24:00,SystemResetWarning,0828.8,5.00,000.00,020.3,019.8,000.0,028.8,022.2,23.6,0000.0,0006.83,0002.30,0001.61
2024-02-22 12:25:00,SystemResetWarning,0828.8,4.99,000.00,020.3,019.8,000.0,028.8,022.2,23.6,0000.0,0006.32,0002.32,0001.63
2024-02-22 12:26:00,SystemResetWarning,0828.9,4.99,000.00,020.3,019.8,000.0,028.8,022.1,23.6,0000.0,0006.32,0002.32,0001.65
2024-02-22 12:27:00,SystemResetWarning,0829.0,5.00,000.00,020.3,019.8,000.0,028.8,022.1,23.6,0000.0,0005.85,0002.29,0001.67
2024-02-22 12:28:00,SystemResetWarning,0829.0,4.99,000.00,020.3,019.8,000.0,028.8,022.1,23.6,0000.0,0005.05,0002.25,0001.68
2024-02-22 12:29:00,SystemResetWarning,0828.9,5.00,000.00,020.3,019.8,000.0,028.8,022.1,23.6,0000.0,0004.89,0002.19,0001.69
2024-02-22 12:30:00,SystemResetWarning,0828.9,5.00,000.00,020.3,019.8,000.0,028.8,022.1,23.6,0000.0,0006.17,0002.23,0001.71
2024-02-22 12:31:00,SystemResetWarning,0829.0,5.01,000.00,020.3,019.8,000.0,028.8,022.1,23.6,0000.0,0006.48,0002.27,0001.73
2024-02-22 12:32:00,SystemResetWarning,0829.0,5.00,000.00,020.3,019.8,000.0,028.8,022.1,23.6,0000.0,0006.57,0002.29,0001.74
2024-02-22 12:33:00,SystemResetWarning,0829.0,5.01,000.00,020.3,019.7,000.0,028.8,022.1,23.7,0000.0,0006.58,0002.30,0001.76
2024-02-22 12:34:00,SystemResetWarning,0829.0,4.99,000.00,020.3,019.7,000.0,028.8,022.1,23.7,0000.0,0007.74,0002.31,0001.77
2024-02-22 12:35:00,SystemResetWarning,0829.0,4.99,000.00,020.3,019.7,000.0,028.8,022.1,23.7,0000.0,0007.76,0002.35,0001.79
2024-02-22 12:36:00,SystemResetWarning,0829.0,5.00,000.00,020.3,019.7,000.0,028.8,022.1,23.7,0000.0,0007.74,0002.33,0001.81
2024-02-22 12:37:00,SystemResetWarning,0829.0,5.00,000.00,020.3,019.7,000.0,028.8,022.1,23.7,0000.0,0007.72,0002.32,0001.83
2024-02-22 12:38:00,SystemResetWarning,0829.0,5.02,000.00,020.3,019.7,000.0,028.8,022.1,23.7,0000.0,0007.68,0002.29,0001.82
2024-02-22 12:39:00,SystemResetWarning,0829.0,5.01,000.00,020.3,019.7,000.0,028.8,022.1,23.8,0000.0,0007.67,0002.29,0001.83
2024-02-22 12:40:00,SystemResetWarning,0829.0,5.00,000.00,020.3,019.7,000.0,028.8,022.1,23.8,0000.0,0007.72,0002.31,0001.85
2024-02-22 12:41:00,SystemResetWarning,0829.0,4.99,000.00,020.3,019.7,000.0,028.8,022.1,23.8,0000.0,0006.78,0002.28,0001.86
2024-02-22 12:42:00,SystemResetWarning,0829.0,4.99,000.00,020.3,019.7,000.0,028.8,022.1,23.8,0000.0,0006.73,0002.26,0001.88
2024-02-22 12:43:00,SystemResetWarning,0829.0,5.01,000.00,020.3,019.7,000.0,028.8,022.1,23.8,0000.0,0006.06,0002.26,0001.88
2024-02-22 12:44:00,SystemResetWarning,0829.0,5.01,000.00,020.2,019.7,000.0,028.8,022.1,23.9,0000.0,0006.50,0002.27,0001.88
2024-02-22 12:45:00,SystemResetWarning,0829.0,5.00,000.00,020.2,019.7,000.0,028.8,022.1,23.9,0000.0,0005.00,0002.30,0001.91
2024-02-22 12:46:00,SystemResetWarning,0829.0,5.00,000.00,020.2,019.7,000.0,028.8,022.1,23.9,0000.0,0004.88,0002.32,0001.93
2024-02-22 12:47:00,SystemResetWarning,0829.0,5.00,000.00,020.2,019.7,000.0,028.8,022.1,23.9,0000.0,0004.76,0002.35,0001.95
2024-02-22 12:48:00,SystemResetWarning,0829.0,5.00,000.00,020.2,019.7,000.0,028.7,022.1,24.0,0000.0,0004.77,0002.40,0001.99
2024-02-22 12:49:00,SystemResetWarning,0829.0,5.00,000.00,020.2,019.7,000.0,028.7,022.0,24.0,0000.0,0005.00,0002.44,0002.03
2024-02-22 12:50:00,SystemResetWarning,0829.0,5.00,000.00,020.2,019.7,000.0,028.7,022.0,24.1,0000.0,0005.15,0002.53,0002.07
2024-02-22 12:51:00,SystemResetWarning,0829.0,5.00,000.00,020.2,019.7,000.0,028.7,022.0,24.1,0000.0,0005.20,0002.57,0002.10
2024-02-22 12:52:00,SystemResetWarning,0829.0,4.99,000.00,020.2,019.7,000.0,028.7,022.0,24.1,0000.0,0005.16,0002.60,0002.14
2024-02-22 12:53:00,SystemResetWarning,0829.0,5.00,000.00,020.2,019.7,000.0,028.7,022.0,24.1,0000.0,0005.15,0002.66,0002.19
2024-02-22 12:54:00,SystemResetWarning,0829.1,5.00,000.00,020.2,019.7,000.0,028.7,022.0,24.1,0000.0,0004.97,0002.73,0002.26
2024-02-22 12:55:00,SystemResetWarning,0829.1,5.00,000.00,020.2,019.7,000.0,028.7,022.0,24.2,0000.0,0004.51,0002.82,0002.34
2024-02-22 12:56:00,SystemResetWarning,0829.1,5.00,000.00,020.2,019.7,000.0,028.7,022.0,24.2,0000.0,0004.59,0002.89,0002.40
2024-02-22 12:57:00,SystemResetWarning,0829.1,5.01,000.00,020.2,019.7,000.0,028.7,022.0,24.2,0000.0,0004.87,0002.94,0002.45
2024-02-22 12:58:00,SystemResetWarning,0829.1,5.00,000.00,020.2,019.7,000.0,028.7,022.0,24.2,0000.0,0005.88,0003.01,0002.50
2024-02-22 12:59:00,SystemResetWarning,0829.1,5.00,000.00,020.2,019.7,000.0,028.7,022.0,24.2,0000.0,0005.90,0003.06,0002.55
